Weather History for KCEU - November, 2012

Change the Weather History Date:

Friday, November 16, 2012

  Actual Average Record
Temperature  
Mean Temperature 47 °F -  
Max Temperature 61 °F 63 °F 83 °F (1958)
Min Temperature 33 °F 37 °F 19 °F (1940)
Degree Days  
Heating Degree Days 18    
Moisture  
Dew Point 33 °F    
Average Humidity 70    
Maximum Humidity 93    
Minimum Humidity 30    
Precipitation  
Precipitation 0.00 in - - ()
Sea Level Pressure  
Sea Level Pressure 30.31 in    
Wind  
Wind Speed 1 mph (NNE)    
Max Wind Speed 6 mph    
Max Gust Speed -    
Visibility 6 miles    
Events Fog    
Averages and records for this station are not official NWS values.
T = Trace of Precipitation, MM = Missing Value Source: NWS Daily Summary

Daily Weather History Graph

Daily Weather History Graph

Search for Another Location

Airport or City:

Trip Planner

Search our weather history database for the weather conditions in past years. The results will help you decide how hot, cold, wet, or windy it might be!

Date:

Astronomy

Nov. 16, 2012 Rise Set
Actual Time 7:06 AM EST 5:25 PM EST
Civil Twilight 6:39 AM EST 5:52 PM EST
Nautical Twilight 6:09 AM EST 6:23 PM EST
Astronomical Twilight 5:39 AM EST 6:53 PM EST
Moon 9:58 AM EST (11/16) 8:25 PM EST (11/16)
Length of Visible Light 11h 12m
Length of Day
10h 18m
Waxing Crescent, 11% of the Moon is Illuminated
Nov 16
Waxing Crescent
Nov 20
First Quarter
Nov 28
Full
Dec 6
Last Quarter
Dec 13
New

Hourly Weather History & Observations

Time (EST) Temp. Windchill Dew Point Humidity Pressure Visibility Wind Dir Wind Speed Gust Speed Precip Events Conditions
12:54 AM 44.1 °F - 36.0 °F 73% 30.29 in 10.0 mi Calm Calm - N/A   Clear
1:54 AM 43.0 °F 41.3 °F 34.0 °F 71% 30.29 in 10.0 mi North 3.5 mph - N/A   Partly Cloudy
2:54 AM 42.1 °F 40.2 °F 34.0 °F 73% 30.28 in 10.0 mi ENE 3.5 mph - N/A   Clear
3:54 AM 39.9 °F 37.8 °F 36.0 °F 86% 30.28 in 8.0 mi North 3.5 mph - N/A   Clear
4:54 AM 39.0 °F - 32.0 °F 76% 30.28 in 10.0 mi Calm Calm - N/A   Clear
5:54 AM 37.9 °F - 33.1 °F 83% 30.29 in 9.0 mi Calm Calm - N/A   Clear
6:34 AM 35.6 °F - 33.8 °F 93% 30.29 in 2.5 mi Calm Calm - N/A   Clear
6:41 AM 35.6 °F - 32.0 °F 87% 30.29 in 5.0 mi Calm Calm - N/A   Clear
6:54 AM 34.0 °F - 30.9 °F 89% 30.31 in 1.8 mi Calm Calm - N/A   Clear
6:58 AM 33.8 °F - 30.2 °F 87% 30.30 in 0.8 mi Calm Calm - N/A   Mist
7:07 AM 35.6 °F - 32.0 °F 87% 30.30 in 1.2 mi Calm Calm - N/A   Partly Cloudy
7:13 AM 35.6 °F - 32.0 °F 87% 30.30 in 3.0 mi Calm Calm - N/A   Scattered Clouds
7:22 AM 35.6 °F - 33.8 °F 93% 30.31 in 2.0 mi Calm Calm - N/A   Mostly Cloudy
7:24 AM 35.6 °F - 33.8 °F 93% 30.30 in 1.0 mi Calm Calm - N/A   Mist
7:27 AM 37.4 °F - 33.8 °F 87% 30.31 in 0.2 mi Calm Calm - N/A Fog Fog
7:54 AM 36.0 °F - 34.0 °F 93% 30.32 in 0.2 mi Calm Calm - N/A Fog Fog
8:07 AM 35.6 °F - 33.8 °F 93% 30.32 in 0.2 mi Calm Calm - N/A Fog Fog
8:35 AM 37.4 °F 33.8 °F 35.6 °F 93% 30.33 in 0.5 mi NNW 4.6 mph - N/A Fog Fog
8:42 AM 39.2 °F 37.0 °F 35.6 °F 87% 30.33 in 1.2 mi NNW 3.5 mph - N/A   Scattered Clouds
8:46 AM 39.2 °F 37.0 °F 35.6 °F 87% 30.33 in 3.0 mi NNW 3.5 mph - N/A   Scattered Clouds
8:54 AM 41.0 °F - 37.9 °F 89% 30.33 in 5.0 mi Calm Calm - N/A   Partly Cloudy
9:54 AM 46.9 °F - 34.0 °F 61% 30.34 in 10.0 mi ENE 4.6 mph - N/A   Clear
10:54 AM 52.0 °F - 35.1 °F 53% 30.34 in 10.0 mi NE 3.5 mph - N/A   Clear
11:54 AM 54.0 °F - 35.1 °F 49% 30.32 in 10.0 mi SW 3.5 mph - N/A   Clear
12:54 PM 57.0 °F - 34.0 °F 42% 30.30 in 10.0 mi Calm Calm - N/A   Clear
1:54 PM 59.0 °F - 34.0 °F 39% 30.27 in 10.0 mi NE 3.5 mph - N/A   Clear
2:54 PM 61.0 °F - 32.0 °F 34% 30.26 in 10.0 mi East 5.8 mph - N/A   Clear
3:54 PM 61.0 °F - 28.9 °F 30% 30.26 in 10.0 mi Calm Calm - N/A   Clear
4:54 PM 59.0 °F - 30.9 °F 35% 30.27 in 10.0 mi Calm Calm - N/A   Clear
5:54 PM 55.9 °F - 30.0 °F 37% 30.28 in 10.0 mi Calm Calm - N/A   Clear
6:54 PM 54.0 °F - 30.9 °F 41% 30.31 in 10.0 mi Calm Calm - N/A   Clear
7:54 PM 52.0 °F - 34.0 °F 50% 30.32 in 10.0 mi Calm Calm - N/A   Clear
8:54 PM 50.0 °F - 33.1 °F 52% 30.33 in 10.0 mi NNE 3.5 mph - N/A   Clear
9:54 PM 48.0 °F - 35.1 °F 61% 30.35 in 10.0 mi Calm Calm - N/A   Clear
10:54 PM 46.0 °F 44.8 °F 34.0 °F 63% 30.36 in 10.0 mi NE 3.5 mph - N/A   Clear
11:54 PM 44.1 °F 42.5 °F 33.1 °F 65% 30.37 in 10.0 mi NE 3.5 mph - N/A   Clear